| time (UTC) | temp F | wind direction | speed MPH | gust MPH | rain 1hr in | rain 24hr in | rain mn in | humidity % | barometer mb |
| 20260509144743 | 72 | 197 | 0.0 | 3.0 | 0.00 | 0.02 | 0.02 | 99 | 1052.8 |
| 20260509144239 | 72 | 135 | 4.0 | 7.0 | 0.00 | 0.02 | 0.02 | 99 | 1052.6 |
| 20260509143736 | 72 | 190 | 6.0 | 8.0 | 0.00 | 0.02 | 0.02 | 99 | 1052.5 |
| 20260509143234 | 72 | 156 | 8.0 | 10.0 | 0.00 | 0.02 | 0.02 | 99 | 1052.6 |
| 20260509142730 | 72 | 149 | 4.0 | 6.0 | 0.00 | 0.02 | 0.02 | 99 | 1052.4 |
| 20260509142226 | 72 | 186 | 4.0 | 4.0 | 0.00 | 0.02 | 0.02 | 99 | 1052.4 |
| 20260509141722 | 72 | 174 | 2.0 | 7.0 | 0.00 | 0.02 | 0.02 | 99 | 1052.3 |
| 20260509141219 | 73 | 126 | 3.0 | 4.0 | 0.00 | 0.02 | 0.02 | 99 | 1052.0 |
| 20260509140715 | 72 | 188 | 4.0 | 7.0 | 0.00 | 0.02 | 0.02 | 99 | 1052.1 |
| 20260509140213 | 71 | 153 | 1.0 | 7.0 | 0.00 | 0.02 | 0.02 | 99 | 1051.9 |
| 20260509135710 | 72 | 172 | 2.0 | 3.0 | 0.00 | 0.02 | 0.02 | 99 | 1052.2 |
| 20260509135208 | 71 | 170 | 0.0 | 3.0 | 0.00 | 0.02 | 0.02 | 99 | 1051.9 |
| 20260509134704 | 71 | 132 | 2.0 | 3.0 | 0.00 | 0.02 | 0.02 | 99 | 1052.2 |
| 20260509134202 | 71 | 161 | 1.0 | 3.0 | 0.00 | 0.02 | 0.02 | 99 | 1052.4 |
| 20260509133659 | 71 | 7 | 2.0 | 2.0 | 0.00 | 0.02 | 0.02 | 99 | 1052.5 |
| 20260509133156 | 71 | 8 | 0.0 | 0.0 | 0.00 | 0.02 | 0.02 | 99 | 1052.8 |
| 20260509132654 | 71 | 17 | 1.0 | 2.0 | 0.00 | 0.02 | 0.02 | 99 | 1052.8 |
| 20260509132153 | 71 | 23 | 3.0 | 4.0 | 0.00 | 0.02 | 0.02 | 99 | 1052.9 |
| 20260509131648 | 71 | 8 | 1.0 | 4.0 | 0.00 | 0.02 | 0.02 | 99 | 1052.9 |
| 20260509131145 | 71 | 19 | 0.0 | 0.0 | 0.00 | 0.02 | 0.02 | 99 | 1052.7 |
| 20260509130641 | 71 | 19 | 0.0 | 0.0 | 0.00 | 0.02 | 0.02 | 99 | 1052.7 |
| 20260509130138 | 71 | 23 | 0.0 | 0.0 | 0.00 | 0.02 | 0.02 | 99 | 1052.6 |
| 20260509125634 | 71 | 35 | 0.0 | 1.0 | 0.00 | 0.02 | 0.02 | 99 | 1052.6 |
| 20260509125131 | 71 | 35 | 1.0 | 1.0 | 0.00 | 0.02 | 0.02 | 99 | 1052.5 |
| 20260509124627 | 71 | 35 | 0.0 | 0.0 | 0.00 | 0.02 | 0.02 | 99 | 1052.6 |
| 20260509124125 | 71 | 35 | 0.0 | 0.0 | 0.00 | 0.02 | 0.02 | 99 | 1052.4 |
| 20260509123623 | 71 | 35 | 0.0 | 0.0 | 0.00 | 0.02 | 0.02 | 99 | 1052.4 |
| 20260509123119 | 71 | 35 | 0.0 | 0.0 | 0.00 | 0.02 | 0.02 | 99 | 1052.5 |
| 20260509122615 | 70 | 35 | 0.0 | 1.0 | 0.00 | 0.02 | 0.02 | 99 | 1052.4 |
| 20260509122113 | 70 | 35 | 0.0 | 1.0 | 0.00 | 0.02 | 0.02 | 99 | 1052.7 |
| 20260509121609 | 70 | 36 | 1.0 | 2.0 | 0.00 | 0.02 | 0.02 | 99 | 1052.4 |
| 20260509121106 | 70 | 35 | 0.0 | 0.0 | 0.00 | 0.02 | 0.02 | 99 | 1052.6 |
| 20260509120604 | 71 | 35 | 0.0 | 0.0 | 0.00 | 0.02 | 0.02 | 99 | 1052.3 |
| 20260509115559 | 71 | 35 | 0.0 | 0.0 | 0.00 | 0.02 | 0.02 | 99 | 1052.4 |
| 20260509115057 | 70 | 36 | 0.0 | 0.0 | 0.00 | 0.02 | 0.02 | 99 | 1052.4 |
| 20260509114555 | 70 | 36 | 0.0 | 0.0 | 0.00 | 0.02 | 0.02 | 99 | 1052.6 |
| 20260509114054 | 70 | 36 | 0.0 | 0.0 | 0.00 | 0.02 | 0.02 | 99 | 1052.7 |
| 20260509113552 | 71 | 35 | 0.0 | 0.0 | 0.00 | 0.02 | 0.02 | 99 | 1053.0 |
| 20260509113049 | 71 | 35 | 1.0 | 1.0 | 0.00 | 0.02 | 0.02 | 99 | 1053.2 |
| 20260509112545 | 71 | 36 | 0.0 | 0.0 | 0.00 | 0.02 | 0.02 | 99 | 1053.4 |
| 20260509112042 | 71 | 36 | 0.0 | 2.0 | 0.00 | 0.02 | 0.02 | 99 | 1053.2 |
| 20260509111540 | 71 | 58 | 0.0 | 0.0 | 0.00 | 0.02 | 0.02 | 99 | 1053.1 |
| 20260509111036 | 71 | 43 | 2.0 | 3.0 | 0.00 | 0.02 | 0.02 | 99 | 1053.4 |
| 20260509110533 | 71 | 40 | 0.0 | 2.0 | 0.00 | 0.02 | 0.02 | 99 | 1053.2 |
| 20260509110030 | 71 | 33 | 0.0 | 2.0 | 0.00 | 0.02 | 0.02 | 99 | 1053.5 |
| 20260509105529 | 71 | 40 | 1.0 | 1.0 | 0.00 | 0.02 | 0.02 | 99 | 1053.2 |
| 20260509105026 | 71 | 40 | 1.0 | 3.0 | 0.00 | 0.02 | 0.02 | 99 | 1053.6 |
| 20260509104523 | 71 | 94 | 0.0 | 0.0 | 0.00 | 0.02 | 0.02 | 99 | 1053.3 |
| 20260509104020 | 71 | 94 | 0.0 | 1.0 | 0.00 | 0.02 | 0.02 | 99 | 1053.5 |
| 20260509103517 | 71 | 94 | 1.0 | 1.0 | 0.00 | 0.02 | 0.02 | 99 | 1053.4 |
| 20260509103015 | 71 | 94 | 0.0 | 1.0 | 0.00 | 0.02 | 0.02 | 99 | 1053.2 |
| 20260509102513 | 71 | 94 | 0.0 | 0.0 | 0.00 | 0.02 | 0.02 | 99 | 1053.1 |
| 20260509102009 | 71 | 94 | 0.0 | 0.0 | 0.00 | 0.02 | 0.02 | 99 | 1052.9 |
| 20260509101506 | 71 | 94 | 0.0 | 1.0 | 0.00 | 0.02 | 0.02 | 99 | 1052.9 |
| 20260509101003 | 71 | 94 | 0.0 | 0.0 | 0.00 | 0.02 | 0.02 | 99 | 1052.5 |
| 20260509100500 | 71 | 94 | 1.0 | 2.0 | 0.00 | 0.02 | 0.02 | 99 | 1052.4 |
| 20260509095956 | 71 | 94 | 1.0 | 2.0 | 0.00 | 0.02 | 0.02 | 99 | 1052.3 |
| 20260509095453 | 71 | 94 | 0.0 | 2.0 | 0.00 | 0.02 | 0.02 | 99 | 1052.1 |
| 20260509094950 | 71 | 92 | 1.0 | 2.0 | 0.00 | 0.02 | 0.02 | 99 | 1052.1 |
| 20260509094446 | 71 | 84 | 1.0 | 2.0 | 0.00 | 0.02 | 0.02 | 99 | 1051.9 |
| 20260509093944 | 71 | 68 | 1.0 | 2.0 | 0.00 | 0.02 | 0.02 | 99 | 1051.9 |
| 20260509093442 | 71 | 68 | 0.0 | 0.0 | 0.00 | 0.02 | 0.02 | 99 | 1052.0 |
| 20260509092939 | 71 | 68 | 1.0 | 2.0 | 0.00 | 0.02 | 0.02 | 99 | 1052.1 |
| 20260509092437 | 71 | 68 | 1.0 | 2.0 | 0.00 | 0.02 | 0.02 | 99 | 1051.9 |
| 20260509091936 | 71 | 68 | 0.0 | 0.0 | 0.00 | 0.02 | 0.02 | 99 | 1051.8 |
| 20260509091432 | 71 | 68 | 0.0 | 0.0 | 0.00 | 0.02 | 0.02 | 99 | 1051.7 |
| 20260509090929 | 71 | 68 | 0.0 | 2.0 | 0.00 | 0.02 | 0.02 | 99 | 1051.7 |
| 20260509090426 | 71 | 67 | 0.0 | 0.0 | 0.07 | 0.02 | 0.02 | 99 | 1051.8 |
| 20260509085924 | 71 | 67 | 0.0 | 0.0 | 0.07 | 0.02 | 0.02 | 99 | 1051.8 |
| 20260509085421 | 71 | 68 | 0.0 | 1.0 | 0.00 | 0.01 | 0.01 | 99 | 1051.8 |
| 20260509084917 | 71 | 67 | 0.0 | 2.0 | 0.00 | 0.01 | 0.01 | 99 | 1051.9 |
| 20260509084414 | 71 | 67 | 0.0 | 1.0 | 0.00 | 0.01 | 0.01 | 99 | 1052.2 |
| 20260509083912 | 71 | 67 | 0.0 | 0.0 | 0.07 | 0.01 | 0.01 | 99 | 1052.1 |
| 20260509083409 | 71 | 67 | 0.0 | 0.0 | 0.07 | 0.01 | 0.01 | 99 | 1052.1 |
| 20260509082905 | 71 | 67 | 0.0 | 1.0 | 0.00 | 0.00 | 0.00 | 99 | 1052.3 |
| 20260509082403 | 71 | 69 | 2.0 | 3.0 | 0.00 | 0.00 | 0.00 | 99 | 1052.2 |
| 20260509081859 | 71 | 137 | 0.0 | 0.0 | 0.00 | 0.00 | 0.00 | 99 | 1052.3 |
| 20260509081356 | 71 | 137 | 0.0 | 0.0 | 0.00 | 0.00 | 0.00 | 99 | 1052.2 |
| 20260509080854 | 71 | 137 | 0.0 | 0.0 | 0.00 | 0.00 | 0.00 | 99 | 1052.1 |
| 20260509080352 | 71 | 137 | 0.0 | 0.0 | 0.00 | 0.00 | 0.00 | 99 | 1052.3 |
| 20260509075850 | 71 | 137 | 0.0 | 0.0 | 0.00 | 0.00 | 0.00 | 99 | 1052.1 |
| 20260509075347 | 71 | 137 | 0.0 | 0.0 | 0.00 | 0.00 | 0.00 | 99 | 1052.2 |
| 20260509074844 | 71 | 137 | 0.0 | 0.0 | 0.00 | 0.00 | 0.00 | 99 | 1051.9 |
| 20260509074342 | 71 | 137 | 0.0 | 1.0 | 0.00 | 0.00 | 0.00 | 99 | 1052.0 |
| 20260509073837 | 71 | 137 | 0.0 | 0.0 | 0.00 | 0.00 | 0.00 | 99 | 1052.1 |
| 20260509073334 | 71 | 137 | 1.0 | 1.0 | 0.00 | 0.00 | 0.00 | 99 | 1052.1 |
| 20260509072831 | 71 | 137 | 0.0 | 2.0 | 0.00 | 0.00 | 0.00 | 98 | 1052.3 |
| 20260509072327 | 71 | 137 | 0.0 | 2.0 | 0.00 | 0.00 | 0.00 | 98 | 1052.0 |
| 20260509071824 | 71 | 137 | 1.0 | 2.0 | 0.00 | 0.00 | 0.00 | 98 | 1052.0 |
| 20260509071321 | 71 | 137 | 0.0 | 2.0 | 0.00 | 0.00 | 0.00 | 98 | 1052.2 |
| 20260509070818 | 72 | 137 | 2.0 | 3.0 | 0.00 | 0.00 | 0.00 | 98 | 1052.2 |
| 20260509070315 | 72 | 137 | 1.0 | 3.0 | 0.00 | 0.00 | 0.00 | 98 | 1052.2 |
| 20260509065811 | 72 | 142 | 1.0 | 2.0 | 0.00 | 0.00 | 0.00 | 98 | 1052.2 |
| 20260509065307 | 72 | 137 | 1.0 | 2.0 | 0.00 | 0.00 | 0.00 | 98 | 1052.3 |
| 20260509064803 | 72 | 123 | 1.0 | 2.0 | 0.00 | 0.00 | 0.00 | 98 | 1052.2 |
| 20260509064301 | 72 | 170 | 2.0 | 4.0 | 0.00 | 0.00 | 0.00 | 97 | 1052.2 |
| 20260509063759 | 72 | 165 | 0.0 | 0.0 | 0.00 | 0.00 | 0.00 | 97 | 1052.3 |
| 20260509063255 | 72 | 140 | 4.0 | 4.0 | 0.00 | 0.00 | 0.00 | 97 | 1051.8 |
| 20260509062752 | 72 | 143 | 0.0 | 2.0 | 0.00 | 0.00 | 0.00 | 97 | 1052.0 |
| 20260509062249 | 72 | 162 | 4.0 | 4.0 | 0.00 | 0.00 | 0.00 | 97 | 1051.8 |
| 20260509061746 | 72 | 148 | 3.0 | 4.0 | 0.00 | 0.00 | 0.00 | 97 | 1052.0 |
| 20260509061244 | 72 | 193 | 2.0 | 4.0 | 0.00 | 0.00 | 0.00 | 97 | 1052.1 |
| 20260509060741 | 72 | 132 | 0.0 | 3.0 | 0.00 | 0.00 | 0.00 | 97 | 1052.0 |
| 20260509060237 | 71 | 178 | 2.0 | 3.0 | 0.00 | 0.00 | 0.00 | 97 | 1051.8 |
| 20260509055733 | 71 | 140 | 1.0 | 6.0 | 0.00 | 0.00 | 0.00 | 97 | 1051.9 |
| 20260509055229 | 71 | 216 | 2.0 | 7.0 | 0.00 | 0.00 | 0.00 | 97 | 1051.9 |
| 20260509054726 | 71 | 194 | 2.0 | 3.0 | 0.00 | 0.00 | 0.00 | 97 | 1051.8 |
| 20260509054223 | 71 | 191 | 3.0 | 4.0 | 0.00 | 0.00 | 0.00 | 97 | 1051.8 |
| 20260509053721 | 71 | 177 | 1.0 | 3.0 | 0.00 | 0.00 | 0.00 | 97 | 1051.8 |
| 20260509053218 | 71 | 202 | 3.0 | 4.0 | 0.00 | 0.00 | 0.00 | 98 | 1051.8 |
| 20260509052716 | 71 | 183 | 3.0 | 6.0 | 0.00 | 0.00 | 0.00 | 98 | 1051.9 |
| 20260509052213 | 70 | 173 | 3.0 | 6.0 | 0.00 | 0.00 | 0.00 | 99 | 1051.9 |
| 20260509051711 | 70 | 211 | 4.0 | 6.0 | 0.00 | 0.00 | 0.00 | 99 | 1051.7 |
| 20260509051208 | 70 | 185 | 1.0 | 4.0 | 0.00 | 0.00 | 0.00 | 99 | 1051.9 |
| 20260509050705 | 69 | 138 | 1.0 | 1.0 | 0.00 | 0.00 | 0.00 | 99 | 1051.7 |
| 20260509050202 | 69 | 138 | 0.0 | 1.0 | 0.00 | 0.00 | 0.00 | 99 | 1051.5 |
| 20260509045659 | 70 | 138 | 1.0 | 3.0 | 0.00 | 0.00 | 0.00 | 99 | 1051.4 |
| 20260509045156 | 70 | 138 | 2.0 | 3.0 | 0.00 | 0.00 | 0.00 | 98 | 1051.2 |
| 20260509044653 | 70 | 137 | 2.0 | 4.0 | 0.00 | 0.00 | 0.00 | 98 | 1051.2 |
| 20260509044150 | 70 | 165 | 2.0 | 4.0 | 0.00 | 0.00 | 0.00 | 98 | 1051.4 |
| 20260509043647 | 70 | 165 | 1.0 | 2.0 | 0.00 | 0.00 | 0.00 | 97 | 1051.4 |
| 20260509043142 | 71 | 165 | 0.0 | 2.0 | 0.00 | 0.00 | 0.00 | 97 | 1051.4 |
| 20260509042639 | 71 | 160 | 1.0 | 2.0 | 0.00 | 0.00 | 0.00 | 97 | 1051.5 |
| 20260509042135 | 71 | 167 | 1.0 | 3.0 | 0.00 | 0.00 | 0.00 | 97 | 1051.6 |
| 20260509041632 | 71 | 165 | 2.0 | 4.0 | 0.00 | 0.00 | 0.00 | 96 | 1051.4 |
| 20260509041129 | 71 | 176 | 2.0 | 3.0 | 0.00 | 0.00 | 0.00 | 96 | 1051.8 |
| 20260509040628 | 71 | 173 | 2.0 | 6.0 | 0.00 | 0.00 | 0.00 | 96 | 1051.6 |
| 20260509040124 | 71 | 170 | 2.0 | 4.0 | 0.00 | 0.00 | 0.00 | 95 | 1051.7 |
| 20260509035621 | 71 | 179 | 1.0 | 6.0 | 0.00 | 0.00 | 0.00 | 95 | 1051.8 |
| 20260509035118 | 71 | 175 | 1.0 | 3.0 | 0.00 | 0.00 | 0.00 | 95 | 1051.8 |
| 20260509034616 | 71 | 151 | 2.0 | 4.0 | 0.00 | 0.00 | 0.00 | 95 | 1051.9 |
| 20260509034112 | 71 | 169 | 1.0 | 3.0 | 0.00 | 0.00 | 0.00 | 95 | 1051.7 |
| 20260509033609 | 71 | 182 | 2.0 | 2.0 | 0.00 | 0.00 | 0.00 | 95 | 1051.8 |
| 20260509033106 | 71 | 182 | 2.0 | 3.0 | 0.00 | 0.00 | 0.00 | 95 | 1051.9 |
| 20260509032604 | 71 | 188 | 2.0 | 2.0 | 0.00 | 0.00 | 0.00 | 95 | 1051.7 |
| 20260509032100 | 71 | 188 | 0.0 | 0.0 | 0.00 | 0.00 | 0.00 | 95 | 1051.9 |
| 20260509031558 | 71 | 188 | 0.0 | 0.0 | 0.00 | 0.00 | 0.00 | 94 | 1051.9 |
| 20260509031055 | 71 | 188 | 0.0 | 0.0 | 0.00 | 0.00 | 0.00 | 94 | 1051.7 |
| 20260509030554 | 71 | 188 | 2.0 | 3.0 | 0.00 | 0.00 | 0.00 | 94 | 1051.7 |
| 20260509030050 | 72 | 187 | 0.0 | 0.0 | 0.00 | 0.00 | 0.00 | 94 | 1051.6 |
| 20260509025546 | 72 | 188 | 0.0 | 2.0 | 0.00 | 0.00 | 0.00 | 93 | 1051.5 |
| 20260509025042 | 72 | 183 | 1.0 | 4.0 | 0.00 | 0.00 | 0.00 | 93 | 1051.2 |
| 20260509024538 | 72 | 154 | 2.0 | 3.0 | 0.00 | 0.00 | 0.00 | 93 | 1051.0 |
| 20260509024034 | 72 | 167 | 3.0 | 6.0 | 0.00 | 0.00 | 0.00 | 92 | 1051.1 |
| 20260509023532 | 72 | 158 | 3.0 | 3.0 | 0.00 | 0.00 | 0.00 | 92 | 1051.2 |
| 20260509023028 | 73 | 168 | 3.0 | 4.0 | 0.00 | 0.00 | 0.00 | 92 | 1051.1 |
| 20260509022525 | 73 | 152 | 3.0 | 4.0 | 0.00 | 0.00 | 0.00 | 92 | 1051.3 |
| 20260509022023 | 73 | 174 | 2.0 | 3.0 | 0.00 | 0.00 | 0.00 | 91 | 1051.2 |
| 20260509021520 | 73 | 156 | 3.0 | 4.0 | 0.00 | 0.00 | 0.00 | 91 | 1051.2 |
| 20260509021017 | 73 | 140 | 2.0 | 2.0 | 0.00 | 0.00 | 0.00 | 91 | 1051.1 |
| 20260509020515 | 73 | 138 | 2.0 | 3.0 | 0.00 | 0.00 | 0.00 | 91 | 1050.7 |
| 20260509020012 | 73 | 117 | 3.0 | 4.0 | 0.00 | 0.00 | 0.00 | 91 | 1050.6 |
| 20260509015511 | 73 | 151 | 1.0 | 2.0 | 0.00 | 0.00 | 0.00 | 90 | 1050.5 |
| 20260509015008 | 73 | 151 | 2.0 | 3.0 | 0.00 | 0.00 | 0.00 | 90 | 1050.4 |
| 20260509014504 | 74 | 141 | 2.0 | 4.0 | 0.00 | 0.00 | 0.00 | 89 | 1050.4 |
| 20260509014000 | 74 | 114 | 2.0 | 6.0 | 0.00 | 0.00 | 0.00 | 89 | 1050.2 |
| 20260509013457 | 74 | 135 | 3.0 | 7.0 | 0.00 | 0.00 | 0.00 | 88 | 1050.3 |
| 20260509012953 | 74 | 142 | 2.0 | 6.0 | 0.00 | 0.00 | 0.00 | 88 | 1050.3 |
| 20260509012450 | 74 | 173 | 3.0 | 4.0 | 0.00 | 0.00 | 0.00 | 87 | 1050.1 |
| 20260509011947 | 75 | 144 | 4.0 | 4.0 | 0.00 | 0.00 | 0.00 | 87 | 1050.4 |
| 20260509011444 | 75 | 144 | 6.0 | 7.0 | 0.00 | 0.00 | 0.00 | 87 | 1050.2 |
| 20260509010942 | 75 | 143 | 3.0 | 7.0 | 0.00 | 0.00 | 0.00 | 86 | 1050.2 |
| 20260509010439 | 75 | 132 | 3.0 | 3.0 | 0.00 | 0.00 | 0.00 | 86 | 1050.4 |
| 20260509005936 | 75 | 170 | 2.0 | 4.0 | 0.00 | 0.00 | 0.00 | 86 | 1050.3 |
| 20260509005434 | 75 | 180 | 2.0 | 3.0 | 0.00 | 0.00 | 0.00 | 86 | 1050.3 |
| 20260509004934 | 75 | 160 | 2.0 | 4.0 | 0.00 | 0.00 | 0.00 | 85 | 1050.2 |
| 20260509004431 | 75 | 170 | 2.0 | 4.0 | 0.00 | 0.00 | 0.00 | 85 | 1050.3 |
| 20260509003929 | 76 | 201 | 4.0 | 6.0 | 0.00 | 0.00 | 0.00 | 84 | 1050.2 |
| 20260509003427 | 76 | 158 | 4.0 | 7.0 | 0.00 | 0.00 | 0.00 | 84 | 1050.3 |
| 20260509002923 | 76 | 140 | 3.0 | 7.0 | 0.00 | 0.00 | 0.00 | 84 | 1050.1 |
| 20260509002421 | 76 | 170 | 2.0 | 6.0 | 0.00 | 0.00 | 0.00 | 84 | 1050.2 |
| 20260509001913 | 76 | 162 | 4.0 | 6.0 | 0.00 | 0.00 | 0.00 | 84 | 1050.2 |
| 20260509001409 | 76 | 166 | 3.0 | 6.0 | 0.00 | 0.00 | 0.00 | 84 | 1050.4 |
| 20260509000906 | 76 | 179 | 2.0 | 4.0 | 0.00 | 0.00 | 0.00 | 83 | 1050.2 |
| 20260509000404 | 76 | 158 | 2.0 | 6.0 | 0.00 | 0.00 | 0.00 | 83 | 1050.3 |
| 20260508235859 | 76 | 148 | 4.0 | 6.0 | 0.00 | 0.00 | 0.00 | 83 | 1050.3 |
| 20260508235356 | 76 | 136 | 3.0 | 7.0 | 0.00 | 0.00 | 0.00 | 83 | 1050.1 |
| 20260508234853 | 76 | 156 | 3.0 | 3.0 | 0.00 | 0.00 | 0.00 | 83 | 1050.2 |
| 20260508234350 | 77 | 154 | 4.0 | 7.0 | 0.00 | 0.00 | 0.00 | 82 | 1050.2 |
| 20260508233848 | 77 | 189 | 2.0 | 6.0 | 0.00 | 0.00 | 0.00 | 82 | 1050.2 |
| 20260508233347 | 77 | 184 | 1.0 | 6.0 | 0.00 | 0.00 | 0.00 | 82 | 1050.2 |
| 20260508232844 | 77 | 180 | 4.0 | 6.0 | 0.00 | 0.00 | 0.00 | 81 | 1050.2 |
| 20260508232340 | 77 | 184 | 4.0 | 6.0 | 0.00 | 0.00 | 0.00 | 81 | 1050.2 |
| 20260508231838 | 77 | 141 | 5.0 | 8.0 | 0.00 | 0.00 | 0.00 | 81 | 1050.0 |
| 20260508231334 | 77 | 149 | 6.0 | 11.0 | 0.00 | 0.00 | 0.00 | 81 | 1050.1 |
| 20260508230831 | 77 | 170 | 4.0 | 10.0 | 0.00 | 0.00 | 0.00 | 80 | 1050.1 |
| 20260508230327 | 77 | 146 | 3.0 | 8.0 | 0.00 | 0.00 | 0.00 | 81 | 1050.1 |
| 20260508225826 | 77 | 156 | 6.0 | 9.0 | 0.00 | 0.00 | 0.00 | 80 | 1050.0 |
| 20260508225322 | 77 | 151 | 2.0 | 7.0 | 0.00 | 0.00 | 0.00 | 80 | 1050.2 |
| 20260508224820 | 77 | 154 | 3.0 | 13.0 | 0.00 | 0.00 | 0.00 | 80 | 1050.1 |
| 20260508224317 | 77 | 180 | 5.0 | 9.0 | 0.00 | 0.00 | 0.00 | 80 | 1050.0 |
| 20260508223815 | 77 | 144 | 4.0 | 7.0 | 0.00 | 0.00 | 0.00 | 80 | 1050.2 |
| 20260508223312 | 77 | 175 | 5.0 | 9.0 | 0.00 | 0.00 | 0.00 | 79 | 1050.2 |
| 20260508222809 | 78 | 158 | 5.0 | 8.0 | 0.00 | 0.00 | 0.00 | 79 | 1050.3 |
| 20260508222306 | 78 | 164 | 5.0 | 10.0 | 0.00 | 0.00 | 0.00 | 79 | 1050.1 |
| 20260508221803 | 78 | 125 | 7.0 | 9.0 | 0.00 | 0.00 | 0.00 | 78 | 1050.2 |
| 20260508221258 | 78 | 167 | 4.0 | 6.0 | 0.00 | 0.00 | 0.00 | 79 | 1050.2 |
| 20260508220755 | 78 | 181 | 4.0 | 9.0 | 0.00 | 0.00 | 0.00 | 78 | 1050.3 |
| 20260508220252 | 78 | 172 | 6.0 | 9.0 | 0.00 | 0.00 | 0.00 | 78 | 1050.2 |
| 20260508215748 | 78 | 138 | 2.0 | 6.0 | 0.00 | 0.00 | 0.00 | 78 | 1050.3 |
| 20260508215245 | 78 | 186 | 6.0 | 8.0 | 0.00 | 0.00 | 0.00 | 77 | 1050.4 |
| 20260508214742 | 78 | 149 | 3.0 | 4.0 | 0.00 | 0.00 | 0.00 | 78 | 1050.3 |
| 20260508214234 | 78 | 87 | 5.0 | 10.0 | 0.00 | 0.00 | 0.00 | 79 | 1050.5 |
| 20260508213730 | 78 | 144 | 7.0 | 15.0 | 0.00 | 0.00 | 0.00 | 78 | 1050.5 |
| 20260508213227 | 77 | 106 | 5.0 | 10.0 | 0.00 | 0.00 | 0.00 | 79 | 1050.5 |
| 20260508212723 | 79 | 130 | 9.0 | 11.0 | 0.00 | 0.00 | 0.00 | 76 | 1050.4 |
| 20260508212220 | 79 | 145 | 6.0 | 11.0 | 0.00 | 0.00 | 0.00 | 77 | 1050.5 |
| 20260508211715 | 80 | 127 | 4.0 | 8.0 | 0.00 | 0.00 | 0.00 | 76 | 1050.5 |
| 20260508211212 | 79 | 105 | 5.0 | 11.0 | 0.00 | 0.00 | 0.00 | 78 | 1050.7 |
| 20260508210709 | 77 | 129 | 2.0 | 10.0 | 0.00 | 0.00 | 0.00 | 80 | 1051.0 |
| 20260508210206 | 77 | 125 | 4.0 | 11.0 | 0.00 | 0.00 | 0.00 | 79 | 1051.1 |
| 20260508205703 | 77 | 129 | 4.0 | 7.0 | 0.00 | 0.00 | 0.00 | 79 | 1051.1 |
| 20260508205159 | 78 | 114 | 4.0 | 8.0 | 0.00 | 0.00 | 0.00 | 78 | 1051.2 |
| 20260508204655 | 78 | 122 | 3.0 | 7.0 | 0.00 | 0.00 | 0.00 | 78 | 1051.2 |
| 20260508204152 | 77 | 138 | 3.0 | 6.0 | 0.00 | 0.00 | 0.00 | 78 | 1051.4 |
| 20260508203648 | 77 | 151 | 5.0 | 7.0 | 0.00 | 0.00 | 0.00 | 77 | 1051.2 |
| 20260508203144 | 77 | 85 | 2.0 | 9.0 | 0.00 | 0.00 | 0.00 | 78 | 1051.5 |
| 20260508202640 | 77 | 162 | 2.0 | 6.0 | 0.00 | 0.00 | 0.00 | 78 | 1051.5 |
| 20260508202138 | 76 | 95 | 5.0 | 8.0 | 0.00 | 0.00 | 0.00 | 78 | 1051.4 |
| 20260508201634 | 76 | 95 | 1.0 | 7.0 | 0.00 | 0.00 | 0.00 | 78 | 1051.4 |
| 20260508201131 | 77 | 86 | 5.0 | 10.0 | 0.00 | 0.00 | 0.00 | 78 | 1051.7 |
| 20260508200628 | 76 | 126 | 3.0 | 7.0 | 0.00 | 0.00 | 0.00 | 78 | 1051.8 |
| 20260508200124 | 77 | 143 | 2.0 | 6.0 | 0.00 | 0.00 | 0.00 | 78 | 1051.7 |
| 20260508195621 | 76 | 121 | 3.0 | 4.0 | 0.00 | 0.00 | 0.00 | 79 | 1051.8 |
| 20260508195117 | 76 | 95 | 5.0 | 7.0 | 0.00 | 0.00 | 0.00 | 78 | 1051.8 |
| 20260508194614 | 75 | 131 | 5.0 | 8.0 | 0.00 | 0.00 | 0.00 | 80 | 1051.8 |
| 20260508194111 | 76 | 128 | 2.0 | 3.0 | 0.00 | 0.00 | 0.00 | 78 | 1051.9 |
| 20260508193608 | 77 | 143 | 8.0 | 9.0 | 0.00 | 0.00 | 0.00 | 77 | 1051.9 |
| 20260508193104 | 76 | 127 | 1.0 | 2.0 | 0.00 | 0.00 | 0.00 | 76 | 1051.9 |
| 20260508192601 | 76 | 144 | 5.0 | 8.0 | 0.00 | 0.00 | 0.00 | 78 | 1052.0 |
| 20260508192058 | 76 | 148 | 5.0 | 9.0 | 0.00 | 0.00 | 0.00 | 77 | 1052.0 |
| 20260508191554 | 76 | 63 | 1.0 | 4.0 | 0.00 | 0.00 | 0.00 | 77 | 1052.0 |
| 20260508191051 | 76 | 76 | 1.0 | 9.0 | 0.00 | 0.00 | 0.00 | 77 | 1052.2 |
| 20260508190548 | 76 | 124 | 2.0 | 6.0 | 0.00 | 0.00 | 0.00 | 77 | 1052.2 |
| 20260508190044 | 76 | 133 | 6.0 | 10.0 | 0.00 | 0.00 | 0.00 | 77 | 1052.4 |
| 20260508185542 | 76 | 145 | 3.0 | 8.0 | 0.00 | 0.00 | 0.00 | 78 | 1052.3 |
| 20260508185039 | 75 | 149 | 6.0 | 8.0 | 0.00 | 0.00 | 0.00 | 78 | 1052.5 |
| 20260508184537 | 75 | 134 | 7.0 | 9.0 | 0.00 | 0.00 | 0.00 | 79 | 1052.3 |
| 20260508184033 | 75 | 114 | 2.0 | 9.0 | 0.00 | 0.00 | 0.00 | 80 | 1052.6 |
| 20260508183530 | 75 | 116 | 5.0 | 7.0 | 0.00 | 0.00 | 0.00 | 78 | 1052.6 |
| 20260508183026 | 75 | 126 | 1.0 | 6.0 | 0.00 | 0.00 | 0.00 | 79 | 1052.7 |
| 20260508182523 | 75 | 120 | 5.0 | 10.0 | 0.00 | 0.00 | 0.00 | 79 | 1052.9 |
| 20260508182019 | 75 | 133 | 7.0 | 9.0 | 0.00 | 0.00 | 0.00 | 78 | 1052.8 |
| 20260508181514 | 75 | 163 | 6.0 | 8.0 | 0.00 | 0.00 | 0.00 | 78 | 1052.9 |
| 20260508181013 | 75 | 163 | 5.0 | 8.0 | 0.00 | 0.00 | 0.00 | 78 | 1052.5 |
| 20260508180509 | 75 | 150 | 6.0 | 9.0 | 0.00 | 0.00 | 0.00 | 79 | 1052.9 |
| 20260508180005 | 76 | 159 | 4.0 | 8.0 | 0.00 | 0.00 | 0.00 | 78 | 1052.8 |
| 20260508175501 | 77 | 119 | 6.0 | 9.0 | 0.00 | 0.00 | 0.00 | 77 | 1052.9 |
| 20260508174959 | 77 | 95 | 3.0 | 9.0 | 0.00 | 0.00 | 0.00 | 76 | 1052.9 |
| 20260508174457 | 76 | 138 | 2.0 | 4.0 | 0.00 | 0.00 | 0.00 | 76 | 1052.9 |
| 20260508173953 | 77 | 95 | 2.0 | 4.0 | 0.00 | 0.00 | 0.00 | 73 | 1052.9 |
| 20260508173450 | 79 | 51 | 1.0 | 2.0 | 0.00 | 0.00 | 0.00 | 71 | 1053.1 |
| 20260508172946 | 78 | 38 | 1.0 | 2.0 | 0.00 | 0.00 | 0.00 | 72 | 1053.3 |
| 20260508172444 | 76 | 65 | 0.0 | 4.0 | 0.00 | 0.00 | 0.00 | 74 | 1053.3 |
| 20260508171940 | 76 | 61 | 1.0 | 3.0 | 0.00 | 0.00 | 0.00 | 74 | 1053.3 |
| 20260508171436 | 76 | 44 | 0.0 | 3.0 | 0.00 | 0.00 | 0.00 | 75 | 1053.3 |
| 20260508170933 | 76 | 5 | 1.0 | 2.0 | 0.00 | 0.00 | 0.00 | 73 | 1053.4 |
| 20260508170431 | 75 | 5 | 0.0 | 2.0 | 0.00 | 0.00 | 0.00 | 76 | 1053.7 |
| 20260508165927 | 74 | 5 | 1.0 | 4.0 | 0.00 | 0.00 | 0.00 | 77 | 1053.7 |
| 20260508165425 | 75 | 355 | 0.0 | 0.0 | 0.00 | 0.00 | 0.00 | 76 | 1053.6 |
| 20260508164921 | 74 | 355 | 1.0 | 2.0 | 0.00 | 0.00 | 0.00 | 77 | 1053.8 |
| 20260508164418 | 73 | 354 | 1.0 | 2.0 | 0.00 | 0.00 | 0.00 | 78 | 1053.9 |
| 20260508163916 | 74 | 354 | 2.0 | 2.0 | 0.00 | 0.00 | 0.00 | 77 | 1053.8 |
| 20260508163413 | 74 | 11 | 1.0 | 3.0 | 0.00 | 0.00 | 0.00 | 77 | 1053.8 |
| 20260508162908 | 74 | 351 | 1.0 | 2.0 | 0.00 | 0.00 | 0.00 | 76 | 1053.8 |
| 20260508162406 | 74 | 25 | 1.0 | 2.0 | 0.00 | 0.00 | 0.00 | 75 | 1054.2 |
| 20260508161902 | 73 | 62 | 0.0 | 2.0 | 0.00 | 0.00 | 0.00 | 76 | 1054.2 |
| 20260508161400 | 73 | 80 | 1.0 | 2.0 | 0.00 | 0.00 | 0.00 | 76 | 1054.2 |
| 20260508160857 | 71 | 209 | 0.0 | 3.0 | 0.00 | 0.00 | 0.00 | 79 | 1054.4 |
| 20260508160355 | 70 | 127 | 2.0 | 3.0 | 0.00 | 0.00 | 0.00 | 79 | 1054.6 |
| 20260508155852 | 70 | 184 | 1.0 | 2.0 | 0.00 | 0.00 | 0.00 | 81 | 1054.6 |
| 20260508155349 | 70 | 103 | 1.0 | 2.0 | 0.00 | 0.00 | 0.00 | 79 | 1054.4 |
| 20260508154846 | 69 | 180 | 0.0 | 2.0 | 0.00 | 0.00 | 0.00 | 79 | 1054.6 |
| 20260508154343 | 70 | 144 | 2.0 | 2.0 | 0.00 | 0.00 | 0.00 | 76 | 1054.4 |
| 20260508153839 | 68 | 183 | 2.0 | 3.0 | 0.00 | 0.00 | 0.00 | 79 | 1054.8 |
| 20260508153337 | 67 | 224 | 2.0 | 3.0 | 0.00 | 0.00 | 0.00 | 81 | 1054.8 |
| 20260508152833 | 66 | 124 | 0.0 | 2.0 | 0.00 | 0.00 | 0.00 | 82 | 1054.9 |
| 20260508152329 | 66 | 124 | 2.0 | 2.0 | 0.00 | 0.00 | 0.00 | 83 | 1055.1 |
| 20260508151826 | 66 | 161 | 1.0 | 2.0 | 0.00 | 0.00 | 0.00 | 82 | 1054.9 |
| 20260508151324 | 66 | 144 | 3.0 | 4.0 | 0.00 | 0.00 | 0.00 | 83 | 1055.0 |
| 20260508150819 | 65 | 128 | 1.0 | 2.0 | 0.00 | 0.00 | 0.00 | 84 | 1055.0 |
| 20260508150316 | 65 | 182 | 2.0 | 3.0 | 0.00 | 0.00 | 0.00 | 84 | 1055.3 |
| 20260508145807 | 65 | 185 | 2.0 | 4.0 | 0.00 | 0.00 | 0.00 | 83 | 1055.3 |
| 20260508145306 | 65 | 175 | 1.0 | 3.0 | 0.00 | 0.00 | 0.00 | 84 | 1055.1 |